Regional Weather Roundup
Issued by NWS

Home | Current Version | Previous Version | Text Only | Print | Product List | Glossary Off
Versions: 1 2 3 4 5 6 7 8 9 10 11 12 13 14 15 16 17 18 19 20 21 22 23 24 25 26 27 28 29 30 31 32 33 34 35 36 37 38 39 40 41 42 43 44 45 46 47 48 49 50

670
ASUS45 KCYS 201510
RWRWY

WYOMING REGIONAL WEATHER ROUNDUP
NATIONAL WEATHER SERVICE CHEYENNE WY
800 AM MST SAT JAN 20 2018

NOTE:  "FAIR" INDICATES FEW OR NO CLOUDS BELOW 12,000 FEET
WITH NO SIGNIFICANT WEATHER AND/OR OBSTRUCTIONS TO VISIBILITY.

WYZ001-201600-
YELLOWSTONE NATIONAL PARK

CITY           SKY/WX    TMP DP  RH WIND       PRES   REMARKS
LK YELLOWSTONE   N/A     12   9  87 CALM      29.85S
W YELLOWSTONE  NOT AVBL

$$
WYZ002>013-054>058-071-098>099-201600-
NORTHERN WYOMING

CITY           SKY/WX    TMP DP  RH WIND       PRES   REMARKS
JACKSON        CLOUDY    21  17  84 NW5       29.86R WCI  15
CODY           LGT SNOW  28  25  88 S6        29.89R FOG     WCI  22
GREYBULL       CLOUDY    25  23  92 SE3       29.89R
WORLAND        CLOUDY    27  25  92 S9        29.89R WCI  18
SHERIDAN       CLOUDY    29  24  82 N3        29.90R
BUFFALO        CLOUDY    28  19  69 W6        29.88R WCI  22
GILLETTE       CLOUDY    27  24  89 NW8       29.88R WCI  19
HULETT         CLOUDY    30  28  93 MISG      29.89R
NEWCASTLE      PTSUNNY   32  27  80 N3        29.86R

$$
WYZ014>020-022>026-101>103-201600-
CENTRAL WYOMING

CITY           SKY/WX    TMP DP  RH WIND       PRES   REMARKS
BIG PINEY      CLOUDY    21  15  78 CALM      29.83R
PINEDALE       CLOUDY    19  14  79 NW6       29.82S WCI  11
DUBOIS         CLOUDY    21  12  68 NW5       29.80S WCI  15
LANDER         LGT SNOW  28  27  96 CALM      29.83S FOG
RIVERTON       LGT SNOW  27  25  92 NE7       29.84S FOG     WCI  19
CASPER         LGT SNOW  27  27 100 N10       29.87S FOG     WCI  17
DOUGLAS        CLOUDY    30  28  92 NW9       29.87R WCI  22

$$
WYZ021-027>030-104>119-201600-
SOUTHERN WYOMING

CITY           SKY/WX    TMP DP  RH WIND       PRES   REMARKS
EVANSTON       CLOUDY    20  19  96 N10       29.81F FOG     WCI   9
FORT BRIDGER   LGT SNOW  23  23 100 NW5       29.84R WCI  16
ROCK SPRINGS   LGT SNOW  24  21  88 W3        29.81S VSB 1
DIXON            N/A     30  27  89 CALM      29.80F
RAWLINS        CLOUDY    27  19  72 W5        29.81F WCI  22
SARATOGA       FLURRIES  28  28 100 NE9       29.81F WCI  20
LARAMIE        FAIR      23  21  92 NE7       29.79R WCI  15
CHEYENNE       FAIR      34  23  64 N15G21    29.78R WCI  24
TORRINGTON     MOCLDY    30  29  96 NW5       29.84R WCI  25

$$




USA.gov is the U.S. government's official web portal to all federal, state and local government web resources and services.